Regional Weather Roundup
Issued by NWS

Home | Current Version | Previous Version | Graphics & Text | Print | Product List | Glossary On
Versions: 1 2 3 4 5 6 7 8 9 10 11 12 13 14 15 16 17 18 19 20 21 22 23 24 25 26 27 28 29 30 31 32 33 34 35 36 37 38 39 40 41 42 43 44 45 46 47 48 49 50
176
ASUS43 KMPX 210210
RWRMN
WEATHER ROUNDUP FOR MINNESOTA
NATIONAL WEATHER SERVICE TWIN CITIES/CHANHASSEN MN
900 PM CDT THU JUL 20 2017


NOTE: "FAIR" INDICATES FEW OR NO CLOUDS BELOW 12,000 FEET WITH NO
SIGNIFICANT WEATHER AND/OR OBSTRUCTIONS TO VISIBILITY. N/A MEANS
CURRENT SKY AND/OR WEATHER CONDITIONS ARE NOT AVAILABLE.

MNZ060>063-068>070-210300-
   Twin Cities Metro

CITY           SKY/WX    TMP DP  RH WIND       PRES   REMARKS
TWIN CITIES    PTCLDY    85  59  41 SE3       29.95F
ST PAUL        CLEAR     77  67  71 S3        29.95F
CRYSTAL        CLEAR     77  63  61 CALM      29.94F
BLAINE         PTCLDY    79  66  65 CALM      29.96F
LAKEVILLE      CLEAR     70  70 100 CALM      29.96S
EDEN PRAIRIE   CLEAR     79  67  66 NE3       29.95F
SOUTH ST PAUL  CLEAR     81  69  65 CALM      29.95F
LAKE ELMO      FAIR      75  70  83 CALM      29.97F
$$
MNZ001>005-007-008-013>017-022>024-027-028-210300-
   Northwest Minnesota

CITY           SKY/WX    TMP DP  RH WIND       PRES   REMARKS
BEMIDJI        PTCLDY    73  58  59 CALM      29.97S
HALLOCK        CLOUDY    72  63  73 NE7       29.92F
ROSEAU         PTCLDY    70  63  78 CALM      29.95F
WARROAD        PTCLDY    70  63  78 CALM      29.96F
THIEF RVR FALL PTCLDY    71  64  78 SE7       29.95F
CROOKSTON      CLOUDY    77  64  65 E6        29.92F
FOSSTON        PTCLDY    72  64  78 CALM      29.97S
DETROIT LAKES  CLOUDY    79  66  65 CALM      29.98F
MOORHEAD       PTCLDY    79  66  65 E5        29.93R
PARK RAPIDS    CLOUDY    79  62  56 CALM      29.98S
MAHNOMEN       FAIR      78  63  59 SE5       29.95F
$$
MNZ006-009>011-018-025>026-210300-
   North Central Minnesota

CITY           SKY/WX    TMP DP  RH WIND       PRES   REMARKS
BAUDETTE       CLEAR     66  61  84 CALM      29.96S
FLAG ISLAND    PTCLDY    70  63  78 CALM      29.94F
INTL FALLS     MOCLDY    63  57  81 CALM      29.96S
WASKISH        CLEAR     70  63  78 CALM      29.96S
BIG FORK       CLEAR     66  63  88 CALM      29.98S
LONGVILLE      CLOUDY    72  64  78 CALM      29.98R
GRAND RAPIDS   CLEAR     69  64  84 CALM      29.99S
CRANE LAKE     CLEAR     63  61  94 CALM      29.98R
ORR            CLEAR     66  59  77 CALM      29.95R
COOK           CLEAR     68  63  83 CALM      29.98R
WALKER         FAIR      72  65  80 CALM      29.97S
$$
MNZ012-019>021-037-210300-
   Northeast Minnesota

CITY           SKY/WX    TMP DP  RH WIND       PRES   REMARKS
DULUTH         CLEAR     73  63  70 W6        29.97R
ELY            CLEAR     68  61  77 CALM      29.97R
HIBBING        CLEAR     68  62  81 CALM      29.97R
EVELETH        CLEAR     67  57  70 CALM      29.99R
DULUTH HARBOR  CLEAR     79  70  73 SW6       29.94R
TWO HARBORS    CLEAR     73  64  73 CALM      29.94R
SILVER BAY     CLEAR     70  63  78 CALM      29.93S
GRAND MARAIS     N/A     69  59  70 NW3       29.91R
G MARAIS ARPRT CLEAR     61  55  82 CALM      29.99R
$$
MNZ029>031-032-039>041-046>048-054>057-064-210300-
   West Central Minnesota

CITY           SKY/WX    TMP DP  RH WIND       PRES   REMARKS
FERGUS FALLS   CLOUDY    79  66  65 E6        29.93F
WHEATON        CLEAR     72  68  88 E6        29.93F
MORRIS         CLEAR     75  70  83 E5        29.93S
ALEXANDRIA     CLEAR     77  67  71 SE5       29.98S
ELBOW LAKE     FAIR      76  71  83 SE5       29.95F
WADENA         CLOUDY    73  68  83 CALM      29.97S
GLENWOOD       CLEAR     73  70  88 CALM      29.98S
APPLETON       PTCLDY    75  68  78 E5        29.92S
BENSON         PTCLDY    77  70  78 E5        29.95S
ORTONVILLE     CLOUDY    75  68  78 E5        29.92S
MADISON        CLOUDY    75  70  83 SE6       29.93R
WILLMAR        FAIR      75  70  83 E6        29.95F
$$
MNZ033>034-036-042>043-049>051-058-059-210300-
   Central Minnesota

CITY           SKY/WX    TMP DP  RH WIND       PRES   REMARKS
ST CLOUD       CLEAR     72  70  93 CALM      29.96S
SAUK CENTRE    FAIR      75  69  81 E3        29.97S
PAYNESVILLE    CLEAR     78  69  73 CALM      29.96F
AITKIN         CLEAR     70  66  88 CALM      29.97R
PINE RIVER     CLOUDY    75  66  73 MISG      30.00S
BRAINERD       CLEAR     74  68  81 CALM      29.98R HAZE
STAPLES        CLOUDY    75  66  73 CALM      29.98R
LONG PRAIRIE   FAIR      72  66  83 CALM      29.98S
LITTLE FALLS   CLEAR     72  66  83 CALM      29.97F
LITCHFIELD     CLEAR     77  72  83 E3        29.96S
BUFFALO        CLEAR     76  68  76 CALM      29.97S
MAPLE LAKE     CLEAR     75  72  89 CALM      29.97S
HUTCHINSON     CLOUDY    77  72  84 NE6       29.96S
$$
MNZ037-044-045-052-053-210300-
   East Central Minnesota

CITY           SKY/WX    TMP DP  RH WIND       PRES   REMARKS
PRINCETON      CLEAR     73  68  83 CALM      29.97R
MORA           CLEAR     75  64  69 CALM      29.99R
CAMBRIDGE      CLEAR     77  64  65 CALM      29.96R
RUSH CITY      CLEAR     73  66  78 CALM      29.97R
MOOSE LAKE     CLEAR     70  64  83 CALM      29.96R
HINCKLEY       FAIR      72  70  94 CALM      29.97R
CLOQUET        CLEAR     75  61  60 SW5       29.98R
MCGREGOR       CLEAR     75  64  69 CALM      29.98S
$$
MNZ071>073-080-081-089-090-097-098-210300-
   Southwest Minnesota

CITY           SKY/WX    TMP DP  RH WIND       PRES   REMARKS
MONTEVIDEO     CLOUDY    73  66  78 SE5       29.93R
GRANITE FALLS  CLEAR     78  71  77 E3        29.94S
CANBY          CLEAR     76  69  79 CALM      29.94R
MARSHALL       CLEAR     78  72  81 SE7       29.94R
REDWOOD FALLS  CLEAR     76  69  79 E6        29.92S
OLIVIA         CLEAR     77  70  78 E5        29.93S
PIPESTONE      CLEAR     79  70  73 SE6       29.95R
WINDOM         CLEAR     75  70  83 E6        29.94F
WORTHINGTON    CLEAR     77  71  82 E6        29.95F
JACKSON        CLEAR     75  72  88 CALM      29.95F
TRACY          CLEAR     76  72  86 SE5       29.95R
SLAYTON        CLEAR     76  68  77 E7        29.96S
$$
MNZ065>067-074>077-082>085-091>093-210300-
   South Central Minnesota

CITY           SKY/WX    TMP DP  RH WIND       PRES   REMARKS
MANKATO        CLEAR     77  71  82 E6        29.95S
NEW ULM        CLEAR     77  70  78 E7        29.94R
ST JAMES       CLEAR     75  72  88 E5        29.95F
FAIRMONT       CLEAR     75  73  93 E5        29.94F
GLENCOE        CLEAR     76  72  88 CALM      29.95S
FARIBAULT      CLEAR     75  70  83 CALM      29.96S
OWATONNA       CLEAR     75  70  83 E5        29.96S
WASECA         CLEAR     73  68  83 E5        29.96F
ALBERT LEA     CLEAR     77  68  73 SE6       29.97F
$$
MNZ078>079-086>088-094>096-210300-
   Southeast Minnesota

CITY           SKY/WX    TMP DP  RH WIND       PRES   REMARKS
ROCHESTER      CLEAR     74  71  91 E6        29.97F
RED WING       CLEAR     73  70  88 CALM      29.95F
STANTON        CLEAR     75  70  84 E3        29.95S
DODGE CENTER   CLEAR     73  70  88 NE5       29.97F
WINONA         CLEAR     73  70  88 CALM      29.97S
AUSTIN         CLEAR     73  70  88 CALM      29.97F
PRESTON        CLEAR     75  70  85 CALM      29.99S
$$
ABBREVIATIONS USED IN REMARKS
   TC - TEMPERATURES IN CELSIUS
  WCI - WIND CHILL INDEX
   HX - HEAT INDEX
  VSB - VISIBILITY
$$




USA.gov is the U.S. government's official web portal to all federal, state and local government web resources and services.